Location: Rancho Del Sol Observatory
(38.7214°N, 120.6350°W)
Time: 17:56:28
(UTC-08:00)

Courier 1B - Pass Details

Date: 26 January 2020
Orbit: 962 x 1209 km, 28.3° (Epoch: 25 February)

Event Time Altitude Azimuth Distance (km) Brightness Sun altitude
Exits shadow 05:22:27 24° 233° (SW) 2,190 8.9 -21.7°
Maximum altitude 05:25:57 35° 188° (S) 1,787 8.8 -21.0°
Drops below altitude 10° 05:32:50 10° 126° (SE) 3,124 11.1 -19.7°
Sets 05:35:59 0° 117° (ESE) 4,099 12.1 -19.0°
